Hourly Data Report for December 18, 2017

ST. JOHN'S INTL A
NEWFOUNDLAND

47°37'07.000" N
52°45'09.000" W
140.50 m
8403505
71801
YYT

Download Data

Hourly Data (December 2017)
Hourly Data Report for December 18, 2017
TIME
LST
Temp Definition
°C
Dew Point Definition
°C
Rel Hum Definition
%
Precip. Amount Definition
mm

Wind Dir Definition
10's deg

Wind Spd Definition
km/h
Visibility Definition
km
Stn Press Definition
kPa
Hmdx Definition


Wind Chill Definition


Weather Definition


00:30 -5.4 -8.1 81   29 40 24.1 98.75   -15 LegendNANA
01:30 -5.2 -8.4 78   29 20 24.1 98.87   -12 LegendNANA
02:30 -5.0 -8.3 78   30 26 24.1 98.92   -12 Cloudy
03:30 -5.2 -9.2 73   29 25 24.1 98.97   -13 LegendNANA
04:30 -5.2 -9.2 74   30 31 24.1 99.01   -13 LegendNANA
05:30 -5.2 -8.8 76   28 25 24.1 99.04   -13 Cloudy
06:30 -5.4 -8.5 79   29 31 24.1 99.10   -14 LegendNANA
07:30 -5.4 -8.2 81   29 30 24.1 99.12   -14 LegendNANA
08:30 -5.8 -9.7 74   28 25 24.1 99.15   -13 Mainly Clear
09:30 -4.7 -9.3 70   28 35 24.1 99.23   -13 LegendNANA
10:30 -5.2 -8.4 78   29 29 24.1 99.29   -13 Blowing Snow
11:30 -5.5 -8.7 79   30 21 19.3 99.31   -12 Snow Showers,Blowing Snow
12:30 -5.7 -8.8 79   29 32 19.3 99.29   -14 Snow Showers,Blowing Snow
13:30 -5.8 -10.8 68   28 36 24.1 99.30   -15 Blowing Snow
14:30 -6.8 -11.2 71   30 39 24.1 99.35   -16 Blowing Snow
15:30 -7.0 -11.1 73   29 34 24.1 99.43   -16 Blowing Snow
16:30 -7.0 -10.8 75   30 27 24.1 99.53   -15 LegendNANA
17:30 -7.1 -11.0 74   29 24 24.1 99.58   -15 Snow Showers
18:30 -7.6 -11.3 75   29 23 24.1 99.65   -15 LegendNANA
19:30 -7.6 -11.5 74   28 18 24.1 99.70   -14 LegendNANA
20:30 -7.2 -10.8 76   28 22 24.1 99.73   -15 Mostly Cloudy
21:30 -7.9 -11.0 78   28 20 24.1 99.77   -15 LegendNANA
22:30 -8.1 -10.8 81   26 13 24.1 99.79   -14 LegendNANA
23:30 -8.8 -10.9 85   27 17 24.1 99.81   -16 Mainly Clear

Notes on Data Quality.

Legend

  • E = Estimated
  • M = Missing
  • NA = Not Available*
  • [empty] = Indicates an unobserved value
Date modified: